Weather History for Gatesville, TX

Change the Weather History Date:

Friday, January 24, 2014

  Actual Average (KHLR) Record (KHLR)
Temperature  
Mean Temperature 32 °F -  
Max Temperature 39 °F 59 °F 84 °F (2013)
Min Temperature 24 °F 40 °F 23 °F (2003)
Degree Days  
Heating Degree Days 34    
Moisture  
Dew Point 9 °F    
Average Humidity 41    
Maximum Humidity 74    
Minimum Humidity 28    
Precipitation  
Precipitation 0.00 in - - ()
Sea Level Pressure  
Sea Level Pressure 30.58 in    
Wind  
Wind Speed 7 mph (NW)    
Max Wind Speed 12 mph    
Max Gust Speed 17 mph    
Visibility 10 miles    
Events      
Averages and records for this station are not official NWS values.
T = Trace of Precipitation, MM = Missing Value Source: NWS Daily Summary

Daily Weather History Graph

Daily Weather History Graph

Search for Another Location

Airport:

Trip Planner

Search our weather history database for the weather conditions in past years. The results will help you decide how hot, cold, wet, or windy it might be!

Date:

Astronomy

Jan. 24, 2014 Rise Set
Actual Time 7:28 AM CST 5:58 PM CST
Civil Twilight 7:02 AM CST 6:24 PM CST
Nautical Twilight 6:32 AM CST 6:54 PM CST
Astronomical Twilight 6:03 AM CST 7:23 PM CST
Moon 1:01 AM CST (1/24) 12:14 PM CST (1/24)
Length of Visible Light 11h 22m
Length of Day
10h 30m
Last Quarter, 44% of the Moon is Illuminated
Jan 24
Last Quarter
Jan 30
New
Feb 6
First Quarter
Feb 14
Full
Feb 22
Last Quarter

Hourly Weather History & Observations

Time (CST) Temp. Windchill Dew Point Humidity Pressure Visibility Wind Dir Wind Speed Gust Speed Precip Events Conditions
12:15 AM 28.4 °F 20.4 °F 5.0 °F 37% 30.73 in 10.0 mi North 8.1 mph - N/A   Clear
12:35 AM 28.4 °F 23.3 °F 5.0 °F 37% 30.73 in 10.0 mi North 4.6 mph - N/A   Clear
12:55 AM 28.4 °F 20.4 °F 3.2 °F 34% 30.73 in 10.0 mi NNE 8.1 mph - N/A   Clear
1:15 AM 28.4 °F 20.4 °F 3.2 °F 34% 30.73 in 10.0 mi North 8.1 mph - N/A   Clear
1:35 AM 28.4 °F 20.4 °F 3.2 °F 34% 30.73 in 10.0 mi North 8.1 mph - N/A   Clear
1:55 AM 28.4 °F 21.2 °F 5.0 °F 37% 30.73 in 10.0 mi North 6.9 mph - N/A   Clear
2:15 AM 28.4 °F 19.7 °F 3.2 °F 34% 30.73 in 10.0 mi North 9.2 mph - N/A   Clear
2:35 AM 28.4 °F 21.2 °F 3.2 °F 34% 30.73 in 10.0 mi North 6.9 mph - N/A   Clear
2:55 AM 28.4 °F 20.4 °F 5.0 °F 37% 30.72 in 10.0 mi North 8.1 mph - N/A   Partly Cloudy
3:15 AM 28.4 °F 19.7 °F 5.0 °F 37% 30.72 in 10.0 mi North 9.2 mph - N/A   Scattered Clouds
3:35 AM 28.4 °F 18.5 °F 5.0 °F 37% 30.71 in 10.0 mi North 11.5 mph - N/A   Mostly Cloudy
3:55 AM 28.4 °F 21.2 °F 5.0 °F 37% 30.71 in 10.0 mi North 6.9 mph - N/A   Overcast
4:15 AM 28.4 °F 22.2 °F 6.8 °F 40% 30.72 in 10.0 mi North 5.8 mph - N/A   Mostly Cloudy
4:35 AM 28.4 °F 19.1 °F 5.0 °F 37% 30.71 in 10.0 mi North 10.4 mph 17.3 mph N/A   Mostly Cloudy
4:55 AM 28.4 °F 18.5 °F 5.0 °F 37% 30.71 in 10.0 mi North 11.5 mph - N/A   Scattered Clouds
5:15 AM 26.6 °F 16.2 °F 5.0 °F 40% 30.71 in 10.0 mi North 11.5 mph - N/A   Scattered Clouds
5:35 AM 26.6 °F 16.2 °F 5.0 °F 40% 30.72 in 10.0 mi North 11.5 mph - N/A   Mostly Cloudy
5:55 AM 26.6 °F 19.1 °F 5.0 °F 40% 30.72 in 10.0 mi North 6.9 mph - N/A   Mostly Cloudy
6:15 AM 26.6 °F 18.2 °F 3.2 °F 37% 30.72 in 10.0 mi North 8.1 mph - N/A   Overcast
6:35 AM 26.6 °F 18.2 °F 3.2 °F 37% 30.72 in 10.0 mi North 8.1 mph - N/A   Overcast
6:55 AM 26.6 °F 19.1 °F 3.2 °F 37% 30.72 in 10.0 mi North 6.9 mph - N/A   Overcast
7:15 AM 26.6 °F 19.1 °F 3.2 °F 37% 30.73 in 10.0 mi NNW 6.9 mph - N/A   Overcast
7:35 AM 26.6 °F 18.2 °F 3.2 °F 37% 30.73 in 10.0 mi NNW 8.1 mph - N/A   Overcast
7:55 AM 26.6 °F 19.1 °F 3.2 °F 37% 30.73 in 10.0 mi NNW 6.9 mph - N/A   Overcast
8:15 AM 26.6 °F 17.5 °F 3.2 °F 37% 30.73 in 10.0 mi NW 9.2 mph - N/A   Overcast
8:35 AM 26.6 °F 17.5 °F 1.4 °F 34% 30.71 in 10.0 mi North 9.2 mph - N/A   Mostly Cloudy
8:55 AM 24.8 °F 16.1 °F 3.2 °F 40% 30.71 in 10.0 mi North 8.1 mph - N/A   Mostly Cloudy
9:15 AM 26.6 °F 19.1 °F 3.2 °F 37% 30.71 in 10.0 mi North 6.9 mph - N/A   Mostly Cloudy
9:35 AM 26.6 °F 19.1 °F 3.2 °F 37% 30.70 in 10.0 mi North 6.9 mph - N/A   Mostly Cloudy
9:55 AM 26.6 °F 19.1 °F 3.2 °F 37% 30.71 in 10.0 mi NW 6.9 mph - N/A   Mostly Cloudy
10:15 AM 28.4 °F 21.2 °F 3.2 °F 34% 30.71 in 10.0 mi NNW 6.9 mph - N/A   Mostly Cloudy
10:35 AM 28.4 °F 22.2 °F 3.2 °F 34% 30.71 in 10.0 mi WNW 5.8 mph - N/A   Mostly Cloudy
10:55 AM 28.4 °F 23.3 °F 5.0 °F 37% 30.70 in 10.0 mi NW 4.6 mph - N/A   Scattered Clouds
11:15 AM 28.4 °F 22.2 °F 5.0 °F 37% 30.68 in 10.0 mi NW 5.8 mph - N/A   Mostly Cloudy
11:35 AM 30.2 °F 24.3 °F 3.2 °F 32% 30.68 in 10.0 mi WNW 5.8 mph - N/A   Mostly Cloudy
11:55 AM 30.2 °F 21.9 °F 5.0 °F 34% 30.66 in 10.0 mi West 9.2 mph - N/A   Scattered Clouds
12:15 PM 30.2 °F 25.4 °F 3.2 °F 32% 30.64 in 10.0 mi WNW 4.6 mph - N/A   Scattered Clouds
12:35 PM 30.2 °F 25.4 °F 5.0 °F 34% 30.62 in 10.0 mi WNW 4.6 mph - N/A   Scattered Clouds
12:55 PM 32.0 °F 26.4 °F 5.0 °F 32% 30.59 in 10.0 mi WSW 5.8 mph - N/A   Mostly Cloudy
1:15 PM 32.0 °F 27.5 °F 6.8 °F 35% 30.58 in 10.0 mi West 4.6 mph - N/A   Mostly Cloudy
1:35 PM 32.0 °F 25.6 °F 8.6 °F 38% 30.56 in 10.0 mi West 6.9 mph - N/A   Mostly Cloudy
1:55 PM 33.8 °F 29.6 °F 8.6 °F 35% 30.54 in 10.0 mi West 4.6 mph - N/A   Mostly Cloudy
2:15 PM 33.8 °F 28.6 °F 8.6 °F 35% 30.52 in 10.0 mi WSW 5.8 mph - N/A   Mostly Cloudy
2:35 PM 35.6 °F 30.7 °F 8.6 °F 33% 30.52 in 10.0 mi SW 5.8 mph - N/A   Mostly Cloudy
2:55 PM 37.4 °F 34.9 °F 10.4 °F 33% 30.51 in 10.0 mi WNW 3.5 mph - N/A   Mostly Cloudy
3:15 PM 37.4 °F 31.4 °F 8.6 °F 30% 30.50 in 10.0 mi WSW 8.1 mph - N/A   Partly Cloudy
3:35 PM 39.2 °F 35.9 °F 8.6 °F 28% 30.49 in 10.0 mi West 4.6 mph - N/A   Clear
3:55 PM 39.2 °F 34.2 °F 10.4 °F 31% 30.47 in 10.0 mi SW 6.9 mph - N/A   Clear
4:15 PM 39.2 °F 35.9 °F 12.2 °F 33% 30.45 in 10.0 mi WSW 4.6 mph - N/A   Clear
4:35 PM 39.2 °F 33.0 °F 12.2 °F 33% 30.45 in 10.0 mi SW 9.2 mph - N/A   Clear
4:55 PM 39.2 °F 32.5 °F 12.2 °F 33% 30.44 in 10.0 mi SW 10.4 mph - N/A   Clear
5:15 PM 39.2 °F 35.9 °F 14.0 °F 36% 30.43 in 10.0 mi SSW 4.6 mph - N/A   Clear
5:35 PM 37.4 °F 32.1 °F 15.8 °F 41% 30.42 in 10.0 mi SSW 6.9 mph - N/A   Clear
5:55 PM 35.6 °F 30.7 °F 15.8 °F 44% 30.41 in 10.0 mi SW 5.8 mph - N/A   Clear
6:15 PM 35.6 °F 29.9 °F 14.0 °F 41% 30.41 in 10.0 mi SSW 6.9 mph - N/A   Clear
6:35 PM 33.8 °F - 15.8 °F 48% 30.42 in 10.0 mi Calm Calm - N/A   Clear
6:55 PM 33.8 °F 27.7 °F 15.8 °F 48% 30.41 in 10.0 mi SSW 6.9 mph - N/A   Clear
7:15 PM 33.8 °F 29.6 °F 15.8 °F 48% 30.41 in 10.0 mi SSW 4.6 mph - N/A   Clear
7:35 PM 32.0 °F 26.4 °F 17.6 °F 55% 30.41 in 10.0 mi SSW 5.8 mph - N/A   Clear
7:55 PM 32.0 °F 24.8 °F 15.8 °F 51% 30.39 in 10.0 mi South 8.1 mph - N/A   Clear
8:15 PM 32.0 °F 25.6 °F 15.8 °F 51% 30.38 in 10.0 mi South 6.9 mph - N/A   Clear
8:35 PM 32.0 °F 27.5 °F 17.6 °F 55% 30.38 in 10.0 mi SSW 4.6 mph - N/A   Clear
8:55 PM 32.0 °F 27.5 °F 17.6 °F 55% 30.38 in 10.0 mi South 4.6 mph - N/A   Clear
9:15 PM 32.0 °F - 17.6 °F 55% 30.37 in 10.0 mi Calm Calm - N/A   Clear
9:35 PM 32.0 °F - 19.4 °F 60% 30.36 in 10.0 mi Calm Calm - N/A   Clear
9:55 PM 30.2 °F - 17.6 °F 60% 30.35 in 10.0 mi Calm Calm - N/A   Clear
10:15 PM 30.2 °F - 19.4 °F 64% 30.35 in 10.0 mi Calm Calm - N/A   Clear
10:35 PM 28.4 °F - 21.2 °F 74% 30.35 in 10.0 mi Calm Calm - N/A   Clear
10:55 PM 28.4 °F - 19.4 °F 69% 30.35 in 10.0 mi Calm Calm - N/A   Clear
11:15 PM 26.6 °F - 19.4 °F 74% 30.34 in 10.0 mi Calm Calm - N/A   Clear
11:35 PM 30.2 °F - 19.4 °F 64% 30.33 in 10.0 mi Calm Calm - N/A   Clear
11:55 PM 28.4 °F - 19.4 °F 69% 30.32 in 10.0 mi Calm Calm - N/A   Clear